THOR ABLESTAR DEB, 48816

Orbit data source: Space-Track

THOR ABLESTAR DEB, 48816 is space debris in LEO originally from a launch on Thu, 29 Jun 1961 UTC launched from the Air Force Eastern Test Range (AFETR). Debris objects in space refer to the collection of defunct objects orbiting the Earth. Examples of debris include non-operational satellites, rocket bodies, and fragments generated from explosions, collisions, or faulty payload assembly.

Loading next visibility...
Identifier
48816, 1961-015MU
Orbit
LEO
Country
Flag of USUS
Related business
Manufacturer
Unknown
Mission
Spacecraft
Bus & Motor
Unknown
Mass
Unknown
Launch date (UTC)
1961-06-29 (65 years ago)
Launch vehicle
Unknown
Launch site
Air Force Eastern Test Range (AFETR)
Object type
Payload
Rocket body
Debris
Shape & HBR
Unknown shape, 0.1 m
Radar Cross Section
Small (<0.1 m²)

Expand to show TLE details & history
Last TLE update: 1 week ago

TLE from 1 week ago
0 THOR ABLESTAR DEB
1 48816U 61015MU  26029.33673937  .00000725  00000-0  44516-3 0  9997
2 48816  66.8018 251.1497 0107914 291.2487  67.7102 14.08433006626288
Epoch: 2026-01-29T08:04Z
TLE epoch observation values (Epoch: 2026-01-29T08:04:54.281Z)
Latitude
-0.00007°
Longitude
1.33261°
Altitude
837.911 km
Speed
7.449 km/s
True Right ascension
16h 44m 35s
True Declination
0° 00' 00"
Sunlit
Object was in daylight at epoch
Visualization orbit readout
Latitude
Unknown
Longitude
Unknown
Altitude
Unknown
Speed
Unknown
Apparent Right ascension
Unknown
Apparent Declination
Unknown
Sunlit
N/A
Visualization observer readout
Local Sidereal Time
08:58:27
Azimuth
Unknown
Elevation
Unknown
Doppler factor
Unknown
Orbital elements
Apogee altitude
941.262 km
Perigee altitude
784.975 km
Semi-major axis
7,241.255 km
Eccentricity
0.01079
Inclination
66.8018°
RAAN
251.1497°
Arg. of periapsis
291.2487°
True anomaly
68.86021°
Mean anomaly
67.7102°
Eccentric anomaly
68.28462°
Mean motion
3.52227 °/min
Orbital period
102.21 mins
BSTAR
0.00044516
Loading maneuver chart data...
Computing Atmospheric mass density...

Documentation

Showing up to 5 results
|